Wind_Speed
28 28 29 29 30 29 29 28 29 29 29 28 27 28 28 27 25 25 25 25 24 23 21 19 18 16 15 14 14 12 11 10 8 7 6 5 5 4 4 4 4 4 4 4 3 3 2 2 2 2 3 4 4 5 5 5 5 4 4 4 4 5 6 6 7 7 7 7 7
29 29 30 31 31 31 30 30 31 31 30 29 29 29 28 27 26 25 25 24 23 21 19 18 17 16 16 15 14 12 11 9 8 7 6 5 4 4 4 4 4 4 3 3 3 2 1 1 2 2 3 4 4 5 5 5 5 4 5 5 5 6 7 7 8 8 8 8 8
29 30 31 31 31 31 30 30 31 31 30 29 28 27 27 27 26 25 24 23 21 20 19 18 18 17 16 15 13 12 10 9 8 6 5 4 3 3 3 3 3 3 3 2 2 1 0 1 1 2 3 4 4 5 5 5 5 5 5 6 6 7 8 8 8 8 8 8 8
30 31 31 32 32 32 31 31 30 30 30 29 27 27 26 26 25 24 23 22 21 20 19 19 18 17 16 15 13 12 10 8 7 6 4 3 3 3 3 3 3 2 2 2 1 1 1 1 2 3 3 4 4 4 4 5 5 5 6 7 7 8 8 8 8 7 7 7 8
30 31 31 32 32 31 30 30 30 30 30 29 27 27 26 26 25 24 22 22 21 20 19 18 18 17 16 14 13 11 10 8 6 4 3 3 3 3 2 2 2 2 2 2 2 2 2 3 3 3 3 4 4 4 4 5 5 6 7 7 7 7 7 7 7 7 6 7 8
30 31 32 32 31 30 29 29 30 30 29 28 28 27 27 26 25 24 23 22 21 20 18 18 17 16 15 14 12 11 9 7 6 4 3 3 3 2 2 3 3 3 3 3 3 3 4 4 4 4 4 4 4 4 4 5 6 7 7 7 7 7 7 6 6 6 7 7 7
30 31 31 31 31 30 29 29 29 29 29 28 28 28 27 26 24 23 23 22 20 19 19 18 17 16 15 14 12 10 9 7 6 5 4 3 3 3 3 3 4 4 4 4 4 5 5 5 5 5 5 4 5 5 5 6 6 7 7 7 6 6 6 6 6 7 7 7 7
30 30 30 31 31 31 30 30 29 29 28 28 27 27 27 25 24 23 22 20 20 19 19 18 17 15 14 13 12 10 9 7 6 6 5 4 4 4 4 4 5 5 5 5 6 6 6 6 6 5 5 5 5 6 6 6 6 6 6 6 6 6 6 6 7 7 7 7 7
29 30 30 30 30 30 30 29 29 29 28 27 27 27 26 25 24 23 21 20 19 19 18 18 16 15 13 12 11 10 9 8 7 6 6 5 5 5 5 5 6 6 6 6 7 7 7 7 7 6 6 6 6 6 6 6 6 6 6 6 6 6 6 7 7 8 8 8 8
29 30 30 30 30 30 30 29 28 28 28 27 27 27 26 25 24 22 20 19 19 19 19 18 17 15 13 12 11 10 9 8 7 6 6 6 6 6 6 6 6 6 7 7 7 8 8 8 8 7 6 6 6 6 6 6 6 6 6 5 5 6 6 7 8 9 9 9 9
29 30 30 30 30 30 29 29 28 27 27 27 26 26 26 26 24 22 20 19 20 20 20 18 17 15 14 12 11 10 9 8 7 6 6 6 6 6 7 7 6 7 7 8 8 9 9 9 8 8 7 7 7 6 6 6 6 6 6 6 6 6 7 8 9 10 10 10 11
29 29 29 29 29 29 29 28 27 27 27 26 27 27 27 26 24 22 21 21 21 21 20 19 17 16 14 13 12 11 9 8 7 7 7 7 7 7 7 7 7 7 7 8 9 9 9 9 9 8 8 8 7 7 7 7 7 6 6 6 6 7 8 9 10 10 10 11 12
28 28 28 28 28 28 28 27 27 27 27 27 28 28 27 25 23 22 21 22 22 21 20 19 17 15 14 13 12 11 9 8 7 7 7 7 7 7 7 7 7 7 8 8 9 10 10 10 9 9 9 8 8 7 7 7 7 7 7 7 7 8 9 10 10 10 11 12 12
27 27 27 27 28 27 27 27 27 27 27 28 29 29 27 24 23 22 22 22 22 21 20 19 17 15 14 13 12 10 9 8 8 8 7 7 7 7 7 7 7 7 8 9 9 10 10 11 10 10 9 9 8 8 8 8 8 8 7 7 8 8 9 9 10 10 11 11 11
26 26 26 26 27 27 27 27 27 28 29 30 29 28 26 24 23 23 22 22 22 21 20 18 17 16 14 13 11 10 9 8 8 8 7 7 7 7 7 7 7 8 8 9 10 11 11 12 12 11 10 10 9 9 9 9 8 8 8 8 8 9 9 9 9 9 10 10 11
26 26 25 25 26 27 28 28 29 30 31 30 29 27 26 25 24 23 23 22 21 20 19 18 17 16 15 13 12 10 9 9 8 8 7 7 7 7 7 7 8 8 9 9 10 11 12 13 13 12 11 10 10 10 10 9 9 8 8 8 8 8 8 8 8 8 9 10 11
27 25 25 26 27 29 30 30 31 32 32 30 29 27 26 26 25 24 23 22 22 21 19 18 17 16 15 14 12 11 10 9 9 8 8 7 7 7 7 8 8 8 9 10 11 12 13 13 13 12 12 11 11 10 10 10 9 8 8 8 7 7 7 7 7 8 9 11 11
27 26 26 29 30 31 32 33 33 33 31 30 28 27 26 26 25 24 23 22 21 21 20 18 17 15 14 14 13 12 11 10 9 9 8 8 8 8 8 9 9 9 10 10 11 12 13 13 12 12 12 11 11 11 10 10 9 8 8 7 7 6 6 6 7 9 10 11 11
28 28 29 32 34 34 34 34 33 32 30 29 27 27 26 25 25 24 24 23 21 20 19 18 16 15 14 13 13 12 11 10 10 9 9 9 9 10 10 10 10 10 10 10 11 12 12 12 11 11 12 12 12 11 10 10 9 8 7 7 6 6 6 6 7 8 9 10 11
29 29 31 34 35 35 35 34 32 30 28 27 26 26 25 24 24 24 24 23 21 20 18 17 15 15 14 13 13 12 11 11 10 10 10 10 10 10 10 10 10 10 10 10 10 11 11 10 11 11 11 12 12 11 10 9 8 8 7 6 6 5 5 6 7 8 9 9 10
30 30 31 33 34 35 34 32 30 28 27 26 25 25 25 24 24 24 23 22 20 19 17 16 15 15 15 14 13 12 11 11 11 11 11 11 10 10 10 10 9 9 10 10 10 10 10 10 10 11 12 12 12 11 10 9 8 7 7 6 5 5 5 5 6 7 8 8 9
32 32 32 34 35 34 32 30 28 26 25 25 25 25 25 25 24 23 21 20 19 17 16 16 16 15 15 14 13 12 12 11 11 11 11 10 10 10 9 9 9 9 10 10 10 10 10 10 11 12 12 12 12 11 10 9 8 7 6 6 5 4 4 5 5 6 7 8 8
32 33 34 35 35 33 30 28 26 25 25 26 26 26 26 25 24 22 21 19 18 17 17 16 16 15 15 14 13 12 12 11 11 10 10 10 10 10 9 9 9 9 10 10 10 10 10 11 12 13 13 13 12 11 10 9 8 7 6 5 4 4 4 4 5 6 6 7 7
29 32 35 36 34 32 28 26 26 26 27 27 27 27 26 25 23 22 20 18 17 17 17 17 17 16 15 14 13 12 11 11 10 10 10 10 10 10 9 9 9 10 10 10 10 10 11 12 13 13 13 12 11 10 9 9 8 7 7 5 4 3 3 4 4 5 6 6 7
28 32 35 35 32 29 27 26 27 28 28 28 27 26 25 24 22 21 19 18 18 18 18 18 17 16 15 13 12 11 11 11 11 11 10 10 10 10 10 10 10 10 10 10 10 10 11 12 13 13 13 12 11 10 10 9 9 8 7 6 5 4 4 4 4 4 5 5 6
29 33 34 32 30 27 27 28 28 29 28 27 27 26 25 23 22 20 19 19 19 19 19 18 17 15 14 13 12 11 11 11 11 11 11 11 11 10 10 10 10 10 10 10 10 11 11 12 13 13 12 11 11 10 10 9 9 8 7 6 6 5 5 4 4 4 4 5 6
31 32 32 29 27 27 28 28 28 28 28 27 26 26 25 23 22 20 20 20 21 20 19 17 16 15 13 12 11 11 11 12 12 12 12 11 11 10 10 10 10 10 10 10 10 11 12 12 13 12 12 11 10 10 10 10 9 9 8 7 7 6 6 5 5 4 4 4 5
32 32 29 27 27 28 28 28 28 28 27 27 26 25 25 23 22 22 22 22 21 20 18 17 15 13 12 11 11 12 12 12 12 12 12 11 11 11 10 10 10 10 10 10 10 11 12 12 12 12 11 11 10 10 10 10 10 9 9 8 8 8 7 7 6 5 5 5 5
33 30 28 27 28 28 27 26 27 27 27 26 26 25 25 24 23 23 22 22 20 19 17 15 14 12 12 12 12 13 13 13 12 12 12 11 11 11 11 10 10 10 10 10 10 11 12 12 12 11 11 11 11 11 11 11 10 10 10 9 9 9 9 8 7 6 5 5 5
30 28 27 27 27 27 26 26 26 26 26 26 26 25 25 24 24 23 22 20 19 17 15 13 12 12 12 12 13 13 13 12 12 12 12 11 11 11 11 10 10 10 10 10 11 11 12 12 12 11 11 11 11 11 11 11 11 10 10 10 11 11 10 10 9 8 7 6 5
27 25 25 26 26 26 26 25 25 25 25 25 26 25 25 24 23 22 20 19 17 15 13 12 11 12 13 13 14 13 13 12 12 12 12 12 11 11 11 10 10 10 10 10 11 12 12 12 11 11 11 12 12 12 12 12 11 11 11 12 12 12 12 11 10 9 8 7 6
24 24 25 26 26 26 26 25 24 24 25 25 26 25 24 23 22 20 18 17 15 13 12 12 12 13 14 14 14 13 13 13 13 12 12 12 11 11 11 10 10 10 11 11 11 12 12 12 12 12 12 12 12 12 12 12 12 12 12 13 13 14 14 13 12 11 10 8 7
24 25 26 26 26 26 25 24 24 24 25 25 25 24 23 22 20 18 17 15 14 13 12 12 13 14 14 14 14 14 14 13 13 12 12 11 11 11 11 11 11 11 11 12 12 12 12 12 12 12 12 12 13 13 13 13 13 13 13 14 15 15 15 15 14 13 11 10 8
25 26 27 27 26 26 25 24 24 24 25 25 24 23 21 20 19 17 16 14 13 13 12 13 13 14 14 15 14 14 14 13 13 12 12 12 11 12 12 12 12 12 12 12 12 12 12 12 12 12 12 13 13 13 14 14 14 14 15 15 16 16 16 16 16 14 13 11 10
25 26 26 26 26 25 25 24 25 25 25 24 23 22 20 19 17 16 14 13 13 12 12 13 13 14 14 15 15 14 14 13 13 12 12 12 12 13 13 13 13 13 13 13 13 13 12 12 12 13 13 13 14 14 15 15 15 15 16 17 17 18 18 18 17 16 15 13 12
25 26 26 26 26 25 25 25 25 25 24 23 22 21 19 17 16 14 13 12 12 12 12 13 13 14 15 15 14 14 13 13 13 13 12 13 13 14 14 14 14 13 13 13 13 13 13 13 13 13 14 14 15 15 15 16 16 17 17 18 19 19 19 19 18 18 17 15 14
25 26 27 26 25 25 26 26 26 25 24 23 21 19 17 15 14 13 12 12 11 12 12 13 14 15 15 14 14 13 13 13 13 13 13 13 14 15 15 15 15 14 14 14 14 14 13 13 13 14 15 16 16 16 16 17 17 18 18 19 20 20 20 20 20 19 18 17 16
25 26 26 25 25 26 26 26 26 25 23 21 19 17 15 13 12 12 11 11 11 12 13 14 15 15 14 14 13 13 13 13 13 13 14 14 15 16 16 16 15 15 15 15 15 14 14 14 14 15 16 17 17 17 17 18 19 19 20 20 21 21 21 21 21 21 20 20 18
24 25 24 25 26 26 27 26 25 23 21 19 17 15 14 12 11 11 11 11 11 12 13 14 14 14 13 13 13 13 14 14 14 14 15 16 16 16 17 17 16 16 15 15 15 15 15 15 15 16 17 18 18 18 19 19 20 21 21 21 22 22 23 23 23 23 22 22 20
23 23 24 24 26 26 26 25 23 21 18 16 15 13 12 11 10 10 10 11 11 12 13 13 13 13 13 13 14 14 15 15 15 16 16 16 17 17 17 17 17 17 16 16 16 16 16 16 16 17 18 19 20 20 20 21 22 22 22 23 23 24 24 24 24 24 24 23 22
23 23 24 25 26 25 24 22 20 17 16 14 12 11 10 10 9 10 10 11 11 12 12 13 13 13 14 14 15 16 16 17 17 17 17 17 17 18 18 18 18 18 17 17 17 17 17 17 17 18 19 20 21 22 22 22 23 24 23 23 24 24 25 25 25 25 26 25 24
Wind_Direction
199 199 198 196 194 191 191 192 192 192 191 191 191 190 189 187 185 184 183 180 177 173 170 167 165 163 163 162 160 158 155 152 148 142 134 125 118 116 117 117 113 108 102 97 93 87 72 42 23 15 11 2 352 345 339 336 328 317 307 303 300 301 300 298 297 296 296 293 290
199 200 199 198 196 194 193 194 195 194 194 193 193 192 190 188 187 185 183 180 177 172 167 165 165 165 164 163 162 161 159 156 150 143 135 128 124 123 124 121 116 109 106 104 103 100 82 29 5 355 350 346 341 336 331 327 317 303 293 290 291 291 291 290 289 289 288 287 285
200 201 200 199 198 196 195 196 196 196 195 194 194 193 191 189 188 186 183 179 174 169 166 165 166 167 166 164 163 163 161 157 151 144 140 135 135 133 130 125 120 119 118 119 120 120 85 341 331 330 332 335 334 328 320 312 304 293 286 284 285 286 286 286 285 285 284 284 281
201 201 200 200 199 198 197 198 197 197 196 195 194 193 191 190 189 186 181 175 170 168 168 168 168 168 167 165 164 163 160 155 150 147 145 145 146 143 138 132 135 139 144 152 167 202 260 290 301 310 319 325 323 316 305 296 290 284 280 281 282 284 284 285 285 284 282 280 279
201 201 202 201 201 199 199 200 199 198 197 196 194 193 192 191 189 184 177 171 169 169 170 170 169 168 167 166 164 162 159 155 152 152 154 156 155 153 153 157 164 171 182 195 217 239 256 271 281 293 303 309 306 299 290 285 280 278 278 280 281 283 285 285 285 282 279 278 279
200 201 202 202 201 199 199 200 200 199 198 197 195 194 192 191 186 180 173 170 170 170 171 171 170 169 168 167 165 162 160 158 159 162 167 170 171 175 181 187 194 201 209 221 233 246 255 262 271 281 288 293 289 284 278 276 275 275 277 278 282 285 285 282 279 277 277 278 278
201 201 201 202 201 199 199 201 202 201 199 198 197 195 193 190 183 176 171 170 170 171 172 173 173 171 169 168 166 165 164 165 168 173 178 184 192 198 202 207 211 216 224 233 240 247 253 259 265 272 278 280 277 274 271 270 272 275 277 279 281 284 283 276 274 273 274 274 275
201 201 201 202 202 201 201 203 202 201 199 198 197 196 193 187 178 173 171 171 172 173 174 175 175 174 171 169 168 169 170 173 176 181 186 193 202 207 211 215 220 225 232 239 244 248 252 256 261 266 270 271 269 267 267 269 271 274 277 277 279 280 279 275 274 271 270 269 272
199 200 201 202 202 203 203 204 204 202 200 198 197 195 190 182 175 172 172 173 174 176 176 177 176 175 174 172 172 174 176 179 182 186 192 199 206 211 215 219 224 230 236 242 246 248 251 254 258 261 264 265 264 265 267 268 269 270 272 274 276 276 278 279 278 275 271 269 274
198 200 201 202 202 203 203 204 204 203 201 199 197 193 185 178 174 174 175 177 177 178 178 177 176 176 175 176 177 179 180 181 185 190 197 203 210 215 219 222 228 234 239 244 246 249 250 252 255 257 260 261 262 263 264 265 263 263 266 269 273 276 278 280 281 280 277 274 280
200 201 202 202 203 203 202 201 201 200 200 198 194 187 180 176 176 177 179 180 179 179 178 177 176 176 177 179 181 182 182 182 186 194 201 208 213 217 222 227 232 238 243 246 248 249 249 251 253 255 257 259 261 260 258 258 257 258 261 266 272 276 279 282 282 281 280 282 288
201 202 202 202 202 202 201 199 197 197 196 194 188 181 177 177 179 181 182 181 180 178 177 176 177 178 179 181 182 182 182 183 189 197 204 210 215 220 225 230 237 243 248 249 250 250 250 250 252 254 256 257 257 255 253 252 253 256 261 268 275 279 282 283 283 283 285 289 293
201 201 201 201 200 200 198 197 195 194 192 187 181 177 177 179 182 183 182 180 178 176 175 175 177 179 180 181 181 181 182 185 192 199 205 211 216 222 228 234 241 247 251 253 253 252 251 251 252 253 254 254 253 251 250 250 253 257 263 271 278 281 283 283 284 286 289 293 296
200 200 199 199 198 197 196 194 193 190 186 181 178 177 179 181 183 182 180 178 176 174 174 175 177 179 181 181 180 180 183 189 195 201 206 211 218 225 231 238 245 251 255 256 254 253 252 252 252 252 252 252 250 249 248 251 254 260 267 274 279 283 284 284 287 290 294 297 301
197 197 198 198 196 195 194 192 189 185 181 178 177 179 180 181 181 179 178 176 174 174 174 175 177 179 180 180 181 182 187 192 197 202 207 213 220 228 235 243 249 255 258 258 256 255 254 253 253 252 251 249 248 247 249 253 258 264 271 277 282 285 286 287 290 294 299 303 307
193 194 196 196 196 194 192 188 184 180 178 178 179 181 181 180 178 176 175 174 174 175 176 177 178 178 178 179 182 185 190 195 199 204 208 215 223 231 239 247 253 257 260 261 260 259 258 256 254 252 250 248 247 248 250 255 260 266 272 278 283 287 289 292 296 300 304 308 309
191 192 194 197 196 193 189 185 180 178 178 180 181 181 180 178 175 174 174 174 175 176 177 178 178 178 178 180 183 188 193 197 202 206 211 218 226 234 242 249 254 259 262 264 265 264 263 260 255 252 248 247 246 248 251 255 259 264 270 276 282 287 291 295 300 305 307 308 308
190 192 195 196 194 190 186 182 179 179 180 181 181 181 179 176 174 173 174 176 177 177 176 177 177 178 180 182 186 190 195 200 204 209 215 221 227 234 241 246 251 255 259 262 264 266 265 261 255 250 247 245 245 247 250 253 256 261 268 276 281 286 290 296 302 305 306 307 308
193 196 196 193 189 185 182 180 179 180 181 181 180 179 177 176 175 174 175 177 178 177 176 175 176 179 182 185 189 193 197 202 207 212 218 224 229 234 238 243 247 251 255 259 262 265 264 261 255 249 244 243 243 245 248 251 256 263 271 277 281 284 290 297 301 304 306 308 310
195 196 193 187 183 180 179 179 180 181 182 181 179 178 177 177 177 176 176 176 176 174 173 173 176 181 186 189 192 196 201 206 211 216 221 226 230 234 237 241 245 249 254 258 262 264 262 258 252 247 243 242 242 243 246 251 259 266 273 276 278 283 290 298 303 307 310 312 313
194 193 188 182 179 178 179 180 181 182 181 179 178 178 178 178 178 178 177 175 173 170 170 174 181 186 189 191 194 199 204 210 215 219 223 227 230 233 237 241 246 251 256 260 263 262 259 253 248 244 242 241 241 243 248 255 261 266 268 269 271 279 291 302 309 313 316 316 314
191 188 183 179 178 179 180 181 181 181 180 179 179 178 179 179 179 178 176 173 171 170 173 180 187 191 193 195 198 202 208 213 217 221 225 229 233 237 242 246 250 255 259 261 262 259 254 248 245 242 240 239 241 244 251 257 261 261 260 259 263 275 292 306 314 318 319 317 314
185 181 178 177 178 180 181 181 182 182 180 179 179 179 179 179 179 177 174 172 172 174 179 186 191 194 196 199 202 206 211 215 220 225 231 236 240 243 247 251 255 258 260 261 260 255 248 243 240 240 240 240 242 246 251 255 256 253 250 248 253 268 289 306 316 319 320 318 314
178 175 175 176 178 179 181 182 182 181 180 179 179 179 179 179 177 174 172 173 175 179 184 189 192 195 198 201 205 209 213 219 224 231 239 244 246 248 251 254 258 260 261 260 258 253 247 241 238 237 238 240 243 246 250 252 250 246 240 239 244 258 279 296 309 316 318 316 314
176 175 175 176 178 180 182 182 180 179 179 179 179 180 179 177 176 175 176 178 180 184 188 191 194 197 200 203 207 212 218 225 231 237 243 248 249 251 254 257 259 260 260 259 256 253 249 245 242 240 239 240 242 245 248 248 245 240 235 233 239 250 265 279 292 304 312 314 314
177 176 177 178 180 182 183 180 179 179 179 180 180 180 179 177 177 178 180 182 184 187 190 193 196 199 202 206 212 218 225 231 237 242 247 249 251 253 256 259 260 260 260 257 254 250 247 246 245 244 243 242 243 244 244 243 240 236 234 234 239 247 257 266 276 286 299 309 313
178 178 179 181 183 182 181 179 178 179 180 180 180 180 179 178 178 180 182 184 186 188 191 195 198 201 206 212 220 226 232 236 240 245 250 251 254 256 258 260 261 261 259 256 251 247 245 245 245 245 245 246 246 245 243 240 237 234 233 234 238 245 252 259 266 275 286 297 307
180 181 184 186 184 181 179 178 179 181 182 182 182 181 180 179 179 180 182 184 186 189 192 195 200 205 213 221 228 234 237 240 243 248 251 253 256 258 260 261 261 260 257 252 247 244 243 243 244 245 246 247 247 246 244 241 237 234 234 236 240 244 248 253 260 268 278 289 299
184 187 189 187 182 178 177 178 181 183 184 184 183 182 180 179 179 180 182 185 187 190 193 197 204 212 221 229 235 238 240 242 246 250 253 255 257 260 261 262 261 258 253 247 243 241 241 241 242 244 246 247 246 245 243 240 238 237 236 239 242 245 247 251 256 263 271 282 291
187 188 187 182 178 177 178 181 183 185 186 185 183 181 179 178 179 181 184 186 189 192 196 203 212 222 230 236 239 239 240 244 249 253 255 257 259 260 262 262 259 253 247 241 238 238 238 240 241 243 244 245 245 244 242 241 240 239 240 243 245 247 249 251 255 260 265 273 282
186 184 180 177 176 177 180 184 186 187 186 184 180 178 177 178 180 183 186 188 191 195 202 212 222 232 238 241 241 241 243 247 251 254 256 258 260 261 262 260 255 248 241 236 235 235 236 237 239 241 243 243 244 243 243 242 242 243 245 247 248 249 250 252 255 258 262 267 274
183 179 176 175 176 179 183 185 186 185 183 179 177 176 178 180 183 185 188 190 194 201 210 221 232 238 241 242 242 244 247 251 253 255 257 259 260 261 260 257 250 243 237 233 231 232 233 235 237 240 241 243 243 244 244 245 245 247 248 250 251 251 252 254 255 258 260 263 268
178 176 175 175 177 180 183 184 182 180 177 175 175 177 179 182 184 186 189 194 201 211 222 233 239 241 241 242 244 246 249 252 254 256 257 259 259 258 255 251 245 239 233 230 229 230 232 234 236 239 241 243 243 244 245 246 247 249 251 252 253 253 254 255 256 258 259 260 263
175 175 175 175 177 180 181 180 177 174 173 174 176 179 182 183 185 188 193 201 212 225 236 243 245 244 243 244 246 247 248 251 254 256 258 258 257 255 251 247 241 236 231 228 228 229 230 233 236 239 241 242 244 245 246 247 249 251 253 254 255 255 256 257 258 259 259 259 261
174 173 173 174 176 178 177 174 172 172 173 176 179 181 183 186 188 194 202 214 227 238 246 248 247 244 244 245 246 247 249 251 254 257 258 258 256 252 248 244 240 234 229 227 227 228 230 233 236 239 241 243 245 246 247 249 250 252 255 256 257 257 257 258 258 259 259 259 259
173 172 172 173 175 175 173 171 171 173 176 179 181 183 185 190 196 206 218 231 242 247 248 246 244 241 241 242 245 248 251 254 256 258 259 258 254 250 246 243 239 234 229 227 227 228 230 233 236 238 241 243 245 247 249 250 251 253 256 257 258 259 259 258 258 259 259 258 258
172 173 173 173 173 172 171 172 174 177 180 182 184 186 191 198 209 222 235 246 249 248 245 243 241 241 242 244 247 251 255 257 259 259 259 257 253 250 246 242 238 234 231 228 228 229 231 233 236 238 240 242 245 248 249 250 251 253 255 257 259 260 260 259 258 258 258 258 259
173 175 175 174 172 172 173 175 178 180 183 185 188 193 201 212 225 237 247 252 250 245 242 242 242 244 247 250 253 256 258 259 259 259 257 255 252 249 246 243 240 236 233 231 231 231 233 235 237 239 240 243 246 248 249 250 251 253 255 257 259 260 260 259 258 258 258 259 260
174 176 177 175 174 174 175 178 181 183 186 190 195 203 213 226 237 246 250 251 248 245 243 243 246 249 253 255 257 258 259 260 260 259 257 254 252 249 247 244 242 240 237 235 234 234 235 237 238 240 242 244 246 248 249 250 252 254 256 258 259 260 261 260 259 259 259 260 261
174 176 177 176 176 176 178 180 184 187 192 197 205 214 223 232 240 245 246 246 245 244 245 249 252 255 257 258 258 259 261 262 261 259 257 254 252 249 247 245 244 243 242 240 238 238 238 239 241 242 243 244 246 248 249 250 252 254 256 258 260 261 261 261 261 260 260 261 261
174 175 176 176 177 178 180 183 187 191 197 203 211 219 227 234 238 240 241 242 244 247 251 255 258 259 260 260 261 262 263 263 263 260 258 255 252 250 248 246 246 245 244 243 242 241 241 242 243 244 245 245 246 248 249 250 251 253 256 259 261 262 262 262 263 262 262 261 261
Height
836 837 838 839 840 842 843 844 845 846 847 848 850 851 852 853 854 855 857 858 859 860 861 862 863 864 865 866 867 867 868 868 869 869 869 870 870 870 870 871 871 871 872 872 873 873 873 873 874 874 874 874 874 874 875 875 875 875 875 875 875 875 875 875 875 874 874 874 874
835 836 837 838 839 840 842 843 843 845 846 847 848 850 851 852 853 855 856 857 858 859 861 862 863 863 864 865 866 866 867 868 868 868 869 869 870 870 870 870 871 871 871 872 872 872 873 873 873 873 873 873 874 874 874 874 874 874 874 874 874 874 874 874 874 874 874 873 873
833 835 836 837 838 839 840 841 843 844 845 847 848 849 850 852 853 854 855 856 858 859 860 861 862 862 863 864 865 865 866 867 868 868 869 869 870 870 870 870 870 871 871 871 872 872 872 872 873 873 873 873 873 873 873 873 873 874 874 874 874 874 873 873 873 873 873 873 873
832 833 834 835 836 837 838 840 841 843 844 846 848 849 850 851 852 853 854 856 857 858 858 859 860 861 862 863 864 865 865 866 867 868 868 869 869 869 870 870 870 870 871 871 871 871 871 872 872 872 872 872 872 872 873 873 873 873 873 873 873 873 873 873 873 873 872 872 872
831 832 833 834 835 836 838 839 841 842 843 845 846 848 849 850 851 853 854 855 856 857 858 858 859 861 862 863 863 864 865 866 866 867 868 868 869 869 869 869 870 870 870 870 870 871 871 871 871 871 871 871 872 872 872 872 872 872 872 872 872 872 872 872 872 872 872 872 872
829 830 832 833 834 836 838 839 840 841 843 844 845 847 848 849 851 852 853 855 856 857 858 858 859 860 861 862 863 863 864 865 865 866 867 867 868 868 869 869 869 869 869 870 870 870 870 870 870 870 871 871 871 871 871 871 871 871 871 871 871 871 871 871 871 871 871 871 871
828 829 831 832 834 835 837 838 839 840 842 843 844 845 847 848 850 852 853 854 855 857 858 858 859 860 861 861 862 862 863 863 864 865 866 866 867 867 868 868 868 869 869 869 869 869 869 869 870 870 870 870 870 870 870 870 870 870 870 870 870 870 870 870 870 870 870 870 870
827 828 830 831 833 834 835 836 838 839 841 842 843 844 846 848 850 851 853 854 855 856 857 858 859 859 860 860 861 861 862 863 863 863 864 865 866 866 867 867 868 868 868 868 868 868 868 869 869 869 869 869 869 869 869 869 869 869 869 869 869 869 869 869 869 869 869 869 869
827 828 829 830 832 833 834 835 836 838 839 841 842 844 846 848 849 851 852 853 854 855 856 857 858 859 859 860 860 860 861 861 862 863 863 864 865 865 866 866 867 867 867 867 868 868 868 868 868 868 868 868 868 868 868 868 868 868 868 868 868 868 868 868 868 868 868 868 868
825 826 828 829 830 832 833 834 835 837 838 839 841 843 845 846 848 849 850 852 853 854 855 856 857 858 858 859 859 860 860 861 861 862 863 863 864 864 865 865 866 866 866 866 866 867 867 867 867 867 867 867 867 867 867 867 867 867 867 867 868 868 868 868 868 868 867 867 867
824 825 826 828 829 831 832 833 835 836 837 838 840 842 843 845 846 847 848 849 851 852 853 854 855 856 857 858 858 859 859 860 860 861 862 862 863 863 864 864 864 865 865 865 865 866 866 866 866 866 866 866 866 866 866 866 866 866 866 866 867 867 867 867 867 867 866 866 866
823 824 826 827 828 830 832 833 834 835 837 838 839 841 842 843 844 845 846 847 848 849 851 852 853 854 855 857 857 858 858 859 859 860 861 861 862 863 863 863 863 864 864 864 864 864 865 865 865 865 865 865 865 865 865 865 865 865 865 865 866 866 866 866 865 865 865 865 865
822 824 825 827 828 829 831 832 833 835 836 837 838 840 841 842 843 843 844 845 846 848 849 851 852 853 854 855 856 857 857 858 858 859 860 860 861 862 862 862 863 863 863 863 863 863 863 863 863 864 864 864 864 864 864 864 864 864 864 864 864 865 865 864 864 864 864 864 864
822 823 825 826 828 829 830 831 833 834 835 837 838 839 840 841 842 843 844 845 846 847 849 850 851 853 853 854 855 856 857 857 858 858 858 859 860 861 861 861 862 862 862 862 862 862 863 863 863 863 863 863 863 863 863 863 863 863 863 863 863 863 863 863 863 863 863 863 863
821 823 824 826 827 828 829 830 832 833 834 836 837 838 839 840 841 843 843 845 846 847 848 849 851 852 853 854 854 855 856 856 857 857 858 858 859 860 860 860 861 861 861 861 861 861 861 861 861 861 861 861 861 862 862 862 862 862 862 862 863 863 863 863 862 862 862 862 861
820 822 824 826 827 828 828 829 830 832 833 835 836 837 838 839 840 842 843 844 845 846 848 848 850 851 852 853 853 854 855 855 856 856 857 857 858 858 859 859 860 860 860 860 860 860 860 860 860 860 860 860 860 860 860 861 861 861 861 861 861 861 861 861 861 861 861 861 860
819 820 823 825 826 826 827 828 829 830 832 833 834 836 837 838 839 841 842 843 844 845 846 848 849 850 851 852 853 853 854 854 855 855 856 856 857 858 858 858 858 859 859 859 859 859 859 859 859 859 859 859 859 859 859 859 859 860 860 860 860 860 860 860 860 860 860 860 859
816 818 820 822 823 824 825 827 828 829 831 832 833 835 837 838 838 840 841 842 843 844 845 847 848 849 850 851 851 852 853 853 853 854 854 855 856 856 857 857 857 858 858 858 858 858 858 858 858 858 858 858 858 858 858 858 858 858 858 859 859 859 859 859 859 859 859 858 858
814 815 816 817 820 822 824 826 827 829 830 832 833 835 836 838 838 839 840 841 842 843 844 846 847 848 849 850 850 851 851 852 852 853 853 854 854 855 855 856 856 856 856 856 856 856 856 856 856 856 856 857 857 857 857 857 857 858 858 858 858 858 858 858 858 858 858 857 857
814 814 814 816 819 821 824 825 827 829 830 832 833 835 836 837 838 838 839 840 841 842 843 845 847 848 849 849 849 850 850 851 851 852 852 853 853 854 854 854 855 855 855 855 855 855 855 855 855 855 855 855 855 856 856 856 856 857 857 857 857 857 857 857 857 857 856 856 855
814 815 816 818 819 821 823 825 827 828 830 832 833 834 836 837 838 838 839 839 841 842 843 845 846 848 848 848 848 849 849 850 850 851 851 852 852 853 853 853 853 854 854 854 854 854 854 854 854 854 854 854 854 854 855 855 855 855 855 856 856 856 856 856 856 855 855 855 854
810 813 815 818 819 821 823 824 826 828 830 831 832 833 835 836 837 838 839 840 841 842 843 844 846 846 847 847 848 848 848 849 849 850 850 850 851 851 852 852 852 853 853 853 853 853 853 853 853 853 853 853 853 853 854 854 854 854 854 854 855 855 855 855 854 854 854 854 853
807 809 813 815 818 820 822 824 826 828 829 830 831 832 833 835 836 838 839 840 841 841 843 843 845 845 846 846 847 847 847 848 848 848 849 849 849 850 850 851 851 851 851 851 851 851 851 851 851 851 852 852 852 852 853 853 853 853 853 853 853 853 853 853 853 853 853 853 852
809 810 812 814 817 819 821 823 824 826 827 828 830 831 833 834 836 837 838 839 840 841 842 843 844 844 845 845 846 846 846 847 847 848 848 848 848 848 849 849 849 850 850 850 850 850 850 850 850 850 850 851 851 851 852 852 852 852 852 852 853 853 853 852 852 852 852 851 851
811 811 812 814 816 819 820 822 823 825 826 828 829 831 832 834 835 836 838 838 840 841 842 842 843 843 844 844 845 845 845 846 846 846 847 847 847 847 848 848 848 848 848 848 848 848 848 849 849 849 849 850 850 850 850 850 851 851 851 851 851 851 851 851 851 851 851 850 850
813 813 814 815 816 818 820 821 823 824 826 827 829 830 832 833 834 836 837 838 839 840 841 841 842 843 843 843 844 844 844 845 845 845 845 846 846 846 846 847 847 847 847 847 847 847 847 847 848 848 848 848 849 849 849 849 849 849 850 850 850 850 850 850 850 850 849 849 849
813 814 815 816 817 818 819 821 823 824 825 827 828 830 832 833 834 835 836 837 838 839 840 841 841 842 842 843 843 843 843 843 844 844 844 845 845 845 845 845 845 845 845 845 846 846 846 846 847 847 847 847 848 848 848 848 848 848 848 848 848 849 849 848 848 848 848 848 848
813 814 815 816 817 818 819 821 822 824 825 827 828 830 831 832 833 834 835 836 837 838 839 840 841 841 841 842 842 842 842 843 843 843 843 843 844 844 844 844 844 844 844 844 844 844 845 845 845 846 846 846 846 846 847 847 847 847 847 847 847 847 847 847 847 847 847 847 846
812 813 814 815 817 818 819 821 822 823 824 826 828 829 830 832 833 833 834 835 836 837 838 839 840 840 840 841 841 841 841 842 842 842 842 842 843 843 843 843 843 843 843 843 843 843 843 844 844 844 845 845 845 845 845 845 846 846 846 846 846 846 846 846 846 846 846 845 845
811 812 813 815 816 818 819 820 822 823 824 826 827 828 830 831 832 833 834 835 836 837 838 838 839 839 839 840 840 840 840 841 841 841 841 841 841 841 841 841 841 841 841 842 842 842 842 843 843 843 843 843 843 844 844 844 844 844 844 844 844 844 844 844 844 844 844 844 843
811 812 813 815 816 817 819 820 821 823 824 825 827 828 829 831 832 833 833 834 835 836 837 838 838 838 838 839 839 839 839 840 840 840 840 840 840 840 840 840 840 840 840 840 841 841 841 842 842 842 842 842 842 842 843 843 843 843 843 843 843 843 843 843 843 843 843 843 842
811 812 813 814 816 817 818 819 821 823 824 825 827 828 829 830 831 832 833 834 835 835 836 837 837 837 838 838 838 838 838 838 839 839 839 839 839 839 839 839 839 839 839 839 839 840 840 840 840 841 841 841 841 841 841 841 841 841 841 841 841 841 841 841 841 841 841 841 841
810 812 813 814 815 817 818 819 821 822 824 825 827 828 829 830 831 832 833 833 834 835 835 835 836 836 836 837 837 837 837 838 838 838 838 838 838 838 838 838 838 838 838 838 838 838 838 839 839 839 839 839 839 840 840 840 840 840 840 840 840 840 839 839 839 839 839 839 839
809 811 812 814 815 816 818 819 821 823 824 826 827 828 828 829 830 831 832 833 833 834 834 834 835 835 835 836 836 836 836 836 836 836 836 836 836 836 836 836 836 836 836 837 837 837 837 838 838 838 838 838 838 838 838 838 838 838 838 838 838 838 838 838 838 838 838 838 838
809 810 812 813 815 816 818 820 821 823 824 825 826 827 828 829 830 831 831 832 833 833 833 833 833 834 834 834 834 835 835 835 835 835 835 835 835 835 835 835 835 835 835 835 835 836 836 836 836 836 837 837 837 837 837 837 837 837 837 836 836 836 836 836 836 836 836 836 836
809 810 811 813 815 817 818 820 821 823 824 825 826 827 828 828 829 830 831 831 832 832 832 832 833 833 833 833 833 833 833 833 833 833 833 834 834 834 834 833 833 834 834 834 834 834 834 835 835 835 835 835 835 835 835 835 835 835 835 835 834 834 834 834 834 834 834 834 834
809 810 811 813 815 817 819 820 821 822 823 824 825 826 827 828 829 830 830 830 831 831 831 831 832 832 832 832 832 832 832 832 832 832 832 832 832 832 832 832 832 832 832 833 833 833 833 833 833 833 833 833 833 833 833 833 833 833 833 833 833 833 833 833 833 833 833 832 832
809 810 812 814 815 817 819 820 821 822 823 824 825 826 827 828 828 829 829 829 830 830 830 831 831 831 831 831 831 831 831 831 831 831 831 831 831 831 831 831 831 831 831 831 831 831 832 832 832 832 832 832 832 832 832 832 831 831 831 831 831 830 831 831 831 830 830 830 830
810 811 813 814 816 817 819 820 821 822 823 824 825 826 827 827 828 828 828 829 829 829 830 830 830 830 830 830 830 830 830 830 829 829 829 829 829 830 830 829 829 829 829 830 830 830 830 830 830 830 830 830 830 830 830 830 829 829 829 829 829 828 828 828 828 828 828 828 828
811 812 814 815 816 817 819 820 821 822 823 824 825 826 826 827 827 828 828 828 828 829 829 829 829 829 829 829 829 829 828 828 828 828 828 828 828 828 828 828 828 828 828 828 828 828 828 828 828 828 828 828 828 828 828 828 828 827 827 827 827 827 826 826 826 826 826 826 826
811 813 814 815 817 818 819 820 821 822 823 824 825 825 826 826 827 827 828 828 828 828 828 828 828 828 828 828 828 828 827 827 827 827 827 827 827 827 827 827 827 827 827 827 827 827 827 827 827 827 827 827 826 826 826 826 826 825 825 825 825 824 824 824 824 824 824 824 824